This demonstration page uses our WeatherBlox Daily Observations layout. Learn more.

Left ArrowRight Arrow

Hourly Observations for January 30, 2022

Temp ( °F °C ) Dew Point ( °F °C ) Humidity (%) Winds ( mph kmh ) Pressure ( in mb ) Visibility ( mi km ) Precip ( " mm )
12:53 am 00:53 Clear 37 2.8 15 -9.4 41 41 SW 16 26 29.91 1013 10 16 0.00 0.00
1:53 am 01:53 Clear 37 2.8 16 -8.9 42 42 WSW 17 28 29.90 1012 10 16 0.00 0.00
2:53 am 02:53 Clear 36 2.2 18 -7.8 48 48 SW 18 30 29.90 1013 10 16 0.00 0.00
3:53 am 03:53 Clear 36 2.2 18 -7.8 48 48 SW 14 22 29.91 1013 10 16 0.00 0.00
4:53 am 04:53 Clear 34 1.1 18 -7.8 52 52 SW 18 30 29.92 1013 10 16 0.00 0.00
5:53 am 05:53 Clear 34 1.1 19 -7.2 54 54 W 7 11 29.93 1014 10 16 0.00 0.00
6:53 am 06:53 Clear 36 2.2 19 -7.2 50 50 W 10 17 29.93 1014 10 16 0.00 0.00
7:53 am 07:53 Sunny 32 0 19 -7.2 59 59 SSW 8 13 29.95 1014 10 16 0.00 0.00
8:53 am 08:53 Sunny 35 1.7 20 -6.7 54 54 WNW 7 11 29.95 1014 10 16 0.00 0.00
9:53 am 09:53 Sunny 41 5 20 -6.7 43 43 WSW 8 13 29.95 1014 10 16 0.00 0.00
10:53 am 10:53 Sunny 48 8.9 21 -6.1 34 34 W 18 30 29.91 1013 10 16 0.00 0.00
11:53 am 11:53 Sunny 50 10 19 -7.2 29 29 WSW 18 30 29.89 1012 10 16 0.00 0.00
12:53 pm 12:53 Sunny 50 10 20 -6.7 30 30 WSW 18 30 29.86 1011 10 16 0.00 0.00
1:53 pm 13:53 Sunny 51 10.6 21 -6.1 31 31 W 16 26 29.84 1011 10 16 0.00 0.00
2:53 pm 14:53 Sunny 52 11.1 24 -4.4 34 34 W 18 30 29.82 1010 10 16 0.00 0.00
3:53 pm 15:53 Sunny 49 9.4 24 -4.4 38 38 W 18 30 29.80 1009 10 16 0.00 0.00
4:53 pm 16:53 Sunny 45 7.2 25 -3.9 46 46 W 16 26 29.80 1009 10 16 0.00 0.00
5:53 pm 17:53 Clear 42 5.6 26 -3.3 53 53 SW 13 20 29.80 1009 10 16 0.00 0.00
6:53 pm 18:53 Clear 38 3.3 26 -3.3 62 62 SW 14 22 29.78 1008 10 16 0.00 0.00
7:53 pm 19:53 Clear 39 3.9 24 -4.4 55 55 SW 15 24 29.76 1008 10 16 0.00 0.00
8:53 pm 20:53 Clear 40 4.4 25 -3.9 55 55 SW 15 24 29.71 1006 10 16 0.00 0.00
9:53 pm 21:53 Clear 41 5 24 -4.4 51 51 WSW 23 37 29.66 1004 10 16 0.00 0.00
10:53 pm 22:53 Clear 40 4.4 25 -3.9 55 55 WSW 13 20 29.63 1004 10 16 0.00 0.00
11:53 pm 23:53 Mostly Clear 42 5.6 26 -3.3 53 53 SW 16 26 29.60 1002 10 16 0.00 0.00

Powered by AerisWeather